Location: Bishop�s Knoyle
(51.0728°N, 2.1714°W)
Time: 14:08:47
(UTC+00:00)

NOSS 3-4 (C) - Pass Details

Date: 19 January 2021
Orbit: 878 x 1335 km, 63.4° (Epoch: 16 February)

Event Time Altitude Azimuth Distance (km) Brightness Sun altitude
Rises 22:22:20 0° 310° (NW) 3,698 7.1 -51.5°
Reaches altitude 10° 22:24:57 10° 317° (NW) 2,807 6.3 -51.8°
Enters shadow 22:25:04 11° 318° (NW) 2,771 6.3 -51.8°
